| time (UTC) | temp F | wind direction | speed MPH | gust MPH | rain 1hr in | rain 24hr in | rain mn in | humidity % | barometer mb |
| 20260506191632 | 57 | 198 | 2.0 | 5.0 | 0.07 | 0.17 | 0.17 | 1 | 1005.5 |
| 20260506190046 | 57 | 209 | 3.0 | 9.0 | 0.07 | 0.15 | 0.15 | 1 | 1005.5 |
| 20260506184504 | 58 | 188 | 2.0 | 6.0 | 0.07 | 0.14 | 0.14 | 1 | 1005.6 |
| 20260506183059 | 58 | 196 | 1.0 | 7.0 | 0.04 | 0.11 | 0.11 | 1 | 1005.8 |
| 20260506181524 | 58 | 178 | 2.0 | 6.0 | 0.04 | 0.10 | 0.10 | 1 | 1006.0 |
| 20260506180112 | 58 | 214 | 2.0 | 5.0 | 0.05 | 0.08 | 0.08 | 1 | 1006.2 |
| 20260506174532 | 58 | 189 | 2.0 | 8.0 | 0.06 | 0.07 | 0.07 | 1 | 1005.9 |
| 20260506173124 | 58 | 185 | 0.0 | 5.0 | 0.07 | 0.07 | 0.07 | 1 | 1006.0 |
| 20260506171548 | 59 | 178 | 2.0 | 4.0 | 0.06 | 0.06 | 0.06 | 1 | 1006.2 |
| 20260506170130 | 59 | 189 | 1.0 | 4.0 | 0.03 | 0.03 | 0.03 | 11 | 1006.9 |
| 20260506164553 | 60 | 189 | 0.0 | 4.0 | 0.01 | 0.01 | 0.01 | 29 | 1007.0 |
| 20260506163132 | 61 | 189 | 0.0 | 3.0 | 0.00 | 0.00 | 0.00 | 40 | 1006.8 |
| 20260506161552 | 61 | 199 | 1.0 | 7.0 | 0.00 | 0.00 | 0.00 | 52 | 1006.9 |
| 20260506160014 | 61 | 183 | 1.0 | 5.0 | 0.00 | 0.00 | 0.00 | 58 | 1007.1 |
| 20260506154558 | 61 | 199 | 1.0 | 4.0 | 0.00 | 0.00 | 0.00 | 60 | 1007.1 |
| 20260506153022 | 61 | 209 | 0.0 | 3.0 | 0.00 | 0.00 | 0.00 | 60 | 1007.4 |
| 20260506151610 | 61 | 209 | 1.0 | 5.0 | 0.00 | 0.00 | 0.00 | 58 | 1007.5 |
| 20260506150036 | 60 | 171 | 1.0 | 4.0 | 0.00 | 0.00 | 0.00 | 59 | 1007.8 |
| 20260506144624 | 61 | 171 | 0.0 | 4.0 | 0.00 | 0.00 | 0.00 | 59 | 1007.8 |
| 20260506141505 | 61 | 249 | 0.0 | 4.0 | 0.00 | 0.00 | 0.00 | 62 | 1007.8 |
| 20260506134513 | 62 | 208 | 0.0 | 5.0 | 0.00 | 0.00 | 0.00 | 63 | 1007.6 |
| 20260506133110 | 62 | 197 | 4.0 | 9.0 | 0.00 | 0.00 | 0.00 | 64 | 1007.3 |
| 20260506131535 | 61 | 182 | 1.0 | 10.0 | 0.00 | 0.00 | 0.00 | 62 | 1007.4 |
| 20260506130127 | 61 | 172 | 1.0 | 3.0 | 0.00 | 0.00 | 0.00 | 59 | 1007.6 |
| 20260506124539 | 60 | 254 | 1.0 | 4.0 | 0.00 | 0.00 | 0.00 | 56 | 1007.7 |
| 20260506123124 | 60 | 248 | 0.0 | 2.0 | 0.00 | 0.00 | 0.00 | 45 | 1008.0 |
| 20260506121534 | 58 | 182 | 0.0 | 7.0 | 0.00 | 0.00 | 0.00 | 32 | 1008.2 |
| 20260506120129 | 57 | 182 | 0.0 | 4.0 | 0.00 | 0.00 | 0.00 | 20 | 1008.2 |
| 20260506114541 | 56 | 211 | 1.0 | 6.0 | 0.00 | 0.00 | 0.00 | 18 | 1008.3 |
| 20260506113126 | 56 | 188 | 1.0 | 4.0 | 0.00 | 0.00 | 0.00 | 14 | 1008.0 |
| 20260506110010 | 56 | 200 | 1.0 | 6.0 | 0.00 | 0.00 | 0.00 | 15 | 1008.0 |
| 20260506104601 | 55 | 193 | 1.0 | 5.0 | 0.00 | 0.00 | 0.00 | 14 | 1008.3 |
| 20260506103026 | 55 | 186 | 1.0 | 5.0 | 0.00 | 0.00 | 0.00 | 17 | 1008.2 |
| 20260506101611 | 55 | 183 | 1.0 | 6.0 | 0.00 | 0.00 | 0.00 | 22 | 1008.1 |
| 20260506100034 | 55 | 194 | 1.0 | 3.0 | 0.00 | 0.00 | 0.00 | 26 | 1007.7 |
| 20260506094628 | 55 | 194 | 0.0 | 3.0 | 0.00 | 0.00 | 0.00 | 31 | 1007.7 |
| 20260506093051 | 55 | 183 | 0.0 | 3.0 | 0.00 | 0.00 | 0.00 | 37 | 1007.5 |
| 20260506091503 | 55 | 188 | 1.0 | 4.0 | 0.00 | 0.00 | 0.00 | 41 | 1007.7 |
| 20260506084509 | 56 | 189 | 0.0 | 4.0 | 0.00 | 0.00 | 0.00 | 52 | 1007.8 |
| 20260506083104 | 56 | 192 | 0.0 | 4.0 | 0.00 | 0.00 | 0.00 | 57 | 1007.8 |
| 20260506081517 | 56 | 186 | 0.0 | 3.0 | 0.00 | 0.00 | 0.00 | 60 | 1008.0 |
| 20260506073123 | 57 | 180 | 0.0 | 0.0 | 0.00 | 0.00 | 0.00 | 66 | 1007.8 |
| 20260506071548 | 58 | 180 | 0.0 | 1.0 | 0.00 | 0.00 | 0.00 | 67 | 1007.8 |
| 20260506070129 | 58 | 180 | 0.0 | 2.0 | 0.00 | 0.00 | 0.00 | 68 | 1007.9 |
| 20260506061541 | 59 | 180 | 0.0 | 2.0 | 0.00 | 0.00 | 0.00 | 69 | 1007.9 |
| 20260506043033 | 61 | 190 | 0.0 | 2.0 | 0.00 | 0.00 | 0.00 | 68 | 1008.4 |
| 20260506041629 | 61 | 190 | 0.0 | 3.0 | 0.00 | 0.00 | 0.00 | 67 | 1008.3 |
| 20260506040053 | 61 | 187 | 1.0 | 5.0 | 0.00 | 0.00 | 0.00 | 67 | 1008.4 |
| 20260506034545 | 62 | 184 | 0.0 | 3.0 | 0.00 | 0.00 | 0.00 | 66 | 1008.4 |
| 20260506033002 | 62 | 165 | 1.0 | 6.0 | 0.00 | 0.00 | 0.00 | 66 | 1008.5 |
| 20260506031600 | 62 | 196 | 1.0 | 6.0 | 0.00 | 0.00 | 0.00 | 65 | 1008.5 |
| 20260506030011 | 62 | 178 | 1.0 | 4.0 | 0.00 | 0.00 | 0.00 | 65 | 1008.6 |
| 20260506024558 | 63 | 174 | 1.0 | 4.0 | 0.00 | 0.00 | 0.00 | 64 | 1008.6 |
| 20260506023011 | 63 | 183 | 1.0 | 4.0 | 0.00 | 0.00 | 0.00 | 62 | 1008.6 |
| 20260506021616 | 63 | 182 | 0.0 | 3.0 | 0.00 | 0.00 | 0.00 | 62 | 1008.3 |
| 20260506020012 | 64 | 178 | 1.0 | 3.0 | 0.00 | 0.00 | 0.00 | 63 | 1008.4 |
| 20260506014604 | 64 | 177 | 1.0 | 5.0 | 0.00 | 0.00 | 0.00 | 62 | 1008.3 |
| 20260506013023 | 64 | 191 | 1.0 | 5.0 | 0.00 | 0.00 | 0.00 | 62 | 1008.3 |
| 20260506011614 | 64 | 182 | 0.0 | 4.0 | 0.00 | 0.00 | 0.00 | 62 | 1008.2 |
| 20260506010032 | 65 | 186 | 1.0 | 3.0 | 0.00 | 0.00 | 0.00 | 61 | 1008.1 |
| 20260506004630 | 65 | 215 | 0.0 | 6.0 | 0.00 | 0.00 | 0.00 | 60 | 1008.0 |
| 20260506001501 | 67 | 173 | 1.0 | 5.0 | 0.00 | 0.00 | 0.00 | 58 | 1007.4 |
| 20260506000049 | 67 | 180 | 2.0 | 6.0 | 0.00 | 0.00 | 0.00 | 57 | 1007.2 |
| 20260505234506 | 68 | 181 | 2.0 | 6.0 | 0.00 | 0.00 | 0.00 | 55 | 1006.9 |
| 20260505233100 | 69 | 197 | 1.0 | 5.0 | 0.00 | 0.00 | 0.00 | 54 | 1006.6 |
| 20260505231526 | 69 | 184 | 2.0 | 5.0 | 0.00 | 0.00 | 0.00 | 53 | 1006.5 |
| 20260505230115 | 70 | 187 | 1.0 | 7.0 | 0.00 | 0.00 | 0.00 | 52 | 1006.3 |
| 20260505224532 | 70 | 193 | 3.0 | 7.0 | 0.00 | 0.00 | 0.00 | 51 | 1006.1 |
| 20260505223120 | 71 | 235 | 3.0 | 8.0 | 0.00 | 0.00 | 0.00 | 50 | 1006.0 |
| 20260505221551 | 72 | 188 | 2.0 | 9.0 | 0.00 | 0.00 | 0.00 | 48 | 1005.8 |
| 20260505220147 | 73 | 176 | 4.0 | 9.0 | 0.00 | 0.00 | 0.00 | 46 | 1005.7 |
| 20260505214609 | 74 | 183 | 4.0 | 9.0 | 0.00 | 0.00 | 0.00 | 45 | 1005.8 |
| 20260505213006 | 74 | 195 | 2.0 | 14.0 | 0.00 | 0.00 | 0.00 | 45 | 1005.6 |
| 20260505210014 | 75 | 240 | 2.0 | 14.0 | 0.00 | 0.00 | 0.00 | 44 | 1005.7 |
| 20260505204604 | 75 | 222 | 4.0 | 16.0 | 0.00 | 0.00 | 0.00 | 43 | 1005.7 |
| 20260505203024 | 76 | 191 | 3.0 | 10.0 | 0.00 | 0.00 | 0.00 | 41 | 1005.4 |
| 20260505201620 | 76 | 233 | 3.0 | 13.0 | 0.00 | 0.00 | 0.00 | 39 | 1005.5 |
| 20260505200034 | 76 | 198 | 4.0 | 14.0 | 0.00 | 0.00 | 0.00 | 39 | 1005.7 |
| 20260505194618 | 77 | 175 | 4.0 | 12.0 | 0.00 | 0.00 | 0.00 | 38 | 1006.0 |
| 20260505193032 | 77 | 250 | 3.0 | 9.0 | 0.00 | 0.00 | 0.00 | 37 | 1006.0 |